EDT,Max TemperatureF,Mean TemperatureF,Min TemperatureF,Max Dew PointF,MeanDew PointF,Min DewpointF,Max Humidity, Mean Humidity, Min Humidity, Max Sea Level PressureIn, Mean Sea Level PressureIn, Min Sea Level PressureIn, Max VisibilityMiles, Mean VisibilityMiles, Min VisibilityMiles, Max Wind SpeedMPH, Mean Wind SpeedMPH, Max Gust SpeedMPH,PrecipitationIn, CloudCover, Events, WindDirDegrees
2013-10-1,75,62,51,61,57,48,100,86,57,30.06,30.01,29.97,10,5,0,10,3,18,0.00,4,Fog,217
2013-10-2,84,72,62,64,60,56,94,75,49,30.10,30.05,30.00,10,7,2,7,3,,0.00,4,,218
2013-10-3,82,71,61,66,62,56,94,79,54,30.05,30.01,29.94,10,7,2,12,3,21,0.02,5,Rain,208
2013-10-4,84,74,66,67,65,61,94,83,56,30.05,30.02,29.97,10,8,0,12,4,16,0.54,6,Fog-Rain-Thunderstorm,173
2013-10-5,77,70,66,68,66,61,94,86,74,30.07,29.99,29.86,10,6,1,10,5,24,0.29,5,Rain-Thunderstorm,178
2013-10-6,70,62,53,67,59,44,94,87,69,29.88,29.76,29.68,10,8,2,14,7,22,0.32,7,Rain,209
2013-10-7,61,52,44,46,42,39,93,71,51,30.16,29.92,29.77,10,10,9,13,5,22,0.00,3,,237
2013-10-8,70,54,39,49,41,37,93,78,39,30.30,30.22,30.16,10,6,1,7,1,,0.00,0,,141
2013-10-9,73,56,39,48,42,37,100,76,27,30.31,30.26,30.20,10,6,0,13,2,16,0.00,0,Fog,79
2013-10-10,73,57,41,48,42,37,100,76,27,30.23,30.19,30.12,10,6,0,7,1,,0.00,0,Fog,52
2013-10-11,78,60,44,55,46,42,93,80,33,30.15,30.11,30.06,10,5,0,8,2,,0.00,1,Fog,59
2013-10-12,79,62,46,57,51,45,100,78,40,30.11,30.08,30.03,10,6,0,7,1,,0.00,1,Fog,160
2013-10-13,71,60,48,56,45,37,84,59,30,30.36,30.27,30.12,10,10,10,13,4,17,0.00,1,,333
2013-10-14,66,54,42,47,42,39,89,70,42,30.41,30.34,30.26,10,10,10,10,4,16,0.00,1,,43
2013-10-15,64,54,44,61,53,41,94,83,75,30.23,30.01,29.88,10,8,4,13,4,18,0.07,6,Rain,159
2013-10-16,64,55,46,61,51,41,94,78,49,29.97,29.89,29.85,10,9,5,12,8,21,0.00,4,,230
2013-10-17,52,46,41,47,44,39,93,85,76,29.95,29.89,29.82,10,9,3,10,3,17,0.06,6,Rain,226
2013-10-18,64,50,37,45,40,36,93,71,39,29.97,29.93,29.89,10,9,4,14,6,23,0.00,0,,222
2013-10-19,52,44,39,41,38,34,93,80,57,29.94,29.87,29.82,10,8,2,9,4,,0.14,6,Rain,233
2013-10-20,62,52,41,42,37,34,76,61,38,29.96,29.91,29.88,10,10,10,14,9,22,0.03,4,,210
2013-10-21,57,48,39,47,41,31,89,70,57,29.93,29.90,29.86,10,10,5,14,10,22,0.01,4,Rain,226
2013-10-22,51,40,30,35,28,21,93,65,32,30.01,29.96,29.91,10,10,10,9,6,16,0.01,3,Rain,236
2013-10-23,46,39,32,36,32,27,96,83,52,30.01,29.90,29.83,10,6,0,9,2,,0.00,7,Fog-Rain,303
2013-10-24,46,39,33,32,30,28,85,72,53,30.25,30.10,30.00,10,10,9,8,3,16,0.00,6,Snow,249
2013-10-25,48,39,30,35,27,23,92,70,40,30.39,30.31,30.17,10,9,5,13,3,17,0.02,3,,227
2013-10-26,54,46,36,36,29,25,79,56,50,30.15,29.98,29.86,10,10,10,22,13,34,0.00,6,,233
2013-10-27,54,42,30,35,30,28,93,67,37,30.11,30.07,30.04,10,9,2,12,2,17,0.00,2,,222
2013-10-28,59,44,30,38,32,26,85,68,42,30.38,30.25,30.09,10,10,9,6,2,,0.00,1,,43
2013-10-29,57,44,33,40,35,29,85,71,47,30.44,30.35,30.25,10,10,10,9,5,16,0.00,0,,76
2013-10-30,63,48,33,58,42,32,100,83,62,30.22,30.13,29.94,10,5,0,10,2,17,0.00,4,Fog-Rain-Thunderstorm,144
2013-10-31,64,62,60,61,59,56,94,89,82,29.94,29.61,29.24,10,5,2,18,12,30,1.22,8,Rain-Thunderstorm,199